Location: Errabaliem
(16.8108°N, 80.4255°E)
Time: 07:50:05
(UTC+00:00)

CZ-4C R/B - Pass Details

Date: 05 August 2024
Orbit: 522 x 1469 km, 63.4° (Epoch: 10 September)

Event Time Altitude Azimuth Distance (km) Brightness Sun altitude
Rises 15:06:17 0° 333° (NNW) 4,223 6.7 -26.7°
Reaches altitude 10° 15:08:58 10° 332° (NNW) 3,352 6.0 -27.3°
Maximum altitude 15:17:27 80° 247° (WSW) 1,467 3.3 -29.0°
Enters shadow 15:20:32 47° 169° (S) 1,856 3.6 -29.6°
